Preston, Minnesota, United States (55965)
Lat: 43.67N, Lon: 92.08W
Wx Zone: MNZ095
Local Info
Past Weather Observations for Today

NOTE: This archive is for the closest National Weather Service station to Preston. Information may differ from the station used for current weather conditions.

Click here for Long-term Archive

Time Weather Temperature Dewpoint Humidity Pressure Winds Precip Visibility
13:52
Clear
84°F / 29°C 66°F / 19°C 55% 29.71 in
(1006 mb)
WNW 16.1 mph
(WNW 26 kph)
- 10SM
13:33
Clear
86°F / 30°C 64°F / 18°C 49% 29.71 in
(1006 mb)
W 21.9 mph
(W 35 kph)
- 10SM
13:13
Clear
86°F / 30°C 68°F / 20°C 55% 29.71 in
(1006 mb)
W 20.7 mph
(W 33 kph)
- 10SM
12:53
Clear
86°F / 30°C 68°F / 20°C 55% 29.71 in
(1006 mb)
SSW 17.3 mph
(SSW 28 kph)
- 10SM
12:32
Clear
86°F / 30°C 66°F / 19°C 52% 29.68 in
(1005 mb)
SSW 18.4 mph
(SSW 30 kph)
- 10SM
12:13
Clear
86°F / 30°C 68°F / 20°C 55% 29.68 in
(1005 mb)
SSW 19.6 mph
(SSW 32 kph)
- 10SM
11:53
Clear
84°F / 29°C 68°F / 20°C 58% 29.68 in
(1005 mb)
SSW 18.4 mph
(SSW 30 kph)
- 10SM
11:32
Clear
84°F / 29°C 68°F / 20°C 58% 29.68 in
(1005 mb)
SSW 20.7 mph
(SSW 33 kph)
- 10SM
11:13
Clear
84°F / 29°C 68°F / 20°C 58% 29.68 in
(1005 mb)
SSW 15 mph
(SSW 24 kph)
- 10SM
10:53
Clear
82°F / 28°C 68°F / 20°C 62% 29.68 in
(1005 mb)
SSW 15 mph
(SSW 24 kph)
- 10SM
10:33
Clear
82°F / 28°C 68°F / 20°C 62% 29.68 in
(1005 mb)
SW 16.1 mph
(SW 26 kph)
- 10SM
10:13
Clear
81°F / 27°C 68°F / 20°C 66% 29.71 in
(1006 mb)
SSW 15 mph
(SSW 24 kph)
- 10SM
09:53
Clear
81°F / 27°C 68°F / 20°C 66% 29.71 in
(1006 mb)
SW 11.5 mph
(SW 19 kph)
- 10SM
09:33
Clear
79°F / 26°C 68°F / 20°C 70% 29.71 in
(1006 mb)
SW 12.7 mph
(SW 20 kph)
- 10SM
09:13
Clear
79°F / 26°C 68°F / 20°C 70% 29.71 in
(1006 mb)
SW 12.7 mph
(SW 20 kph)
- 10SM
08:53
Clear
77°F / 25°C 66°F / 19°C 69% 29.74 in
(1007 mb)
SW 12.7 mph
(SW 20 kph)
- 10SM
08:33
Clear
77°F / 25°C 66°F / 19°C 69% 29.74 in
(1007 mb)
SSW 12.7 mph
(SSW 20 kph)
- 10SM
08:13
Clear
75°F / 24°C 66°F / 19°C 74% 29.74 in
(1007 mb)
SSW 12.7 mph
(SSW 20 kph)
- 10SM
07:53
Clear
73°F / 23°C 66°F / 19°C 78% 29.77 in
(1008 mb)
SSW 12.7 mph
(SSW 20 kph)
- 10SM
07:33
Clear
73°F / 23°C 66°F / 19°C 78% 29.77 in
(1008 mb)
SSW 13.8 mph
(SSW 22 kph)
- 10SM
07:13
Clear
72°F / 22°C 66°F / 19°C 83% 29.77 in
(1008 mb)
SSW 13.8 mph
(SSW 22 kph)
- 10SM
06:53
Clear
72°F / 22°C 66°F / 19°C 83% 29.77 in
(1008 mb)
SW 13.8 mph
(SW 22 kph)
- 10SM
06:33
Clear
70°F / 21°C 66°F / 19°C 88% 29.74 in
(1007 mb)
SW 11.5 mph
(SW 19 kph)
- 10SM
06:13
Clear
70°F / 21°C 66°F / 19°C 88% 29.74 in
(1007 mb)
SW 11.5 mph
(SW 19 kph)
- 10SM
05:53
Clear
70°F / 21°C 66°F / 19°C 88% 29.74 in
(1007 mb)
SW 11.5 mph
(SW 19 kph)
- 10SM
05:32
Clear
70°F / 21°C 66°F / 19°C 88% 29.74 in
(1007 mb)
SW 12.7 mph
(SW 20 kph)
- 10SM
05:13
Partly Cloudy
70°F / 21°C 66°F / 19°C 88% 29.74 in
(1007 mb)
SW 11.5 mph
(SW 19 kph)
- 10SM
04:53
Mostly Cloudy
70°F / 21°C 66°F / 19°C 88% 29.77 in
(1008 mb)
SW 11.5 mph
(SW 19 kph)
- 10SM
04:33
Partly Cloudy
70°F / 21°C 66°F / 19°C 88% 29.77 in
(1008 mb)
SSW 15 mph
(SSW 24 kph)
- 10SM
04:13
Partly Cloudy
70°F / 21°C 66°F / 19°C 88% 29.77 in
(1008 mb)
SSW 15 mph
(SSW 24 kph)
- 10SM
03:53
Clear
Thunder Storms
70°F / 21°C 66°F / 19°C 88% 29.77 in
(1008 mb)
SSW 13.8 mph
(SSW 22 kph)
- 10SM
03:32
Partly Cloudy
Thunder Storms
70°F / 21°C 66°F / 19°C 88% 29.77 in
(1008 mb)
SW 11.5 mph
(SW 19 kph)
- 10SM
03:13
Mostly Cloudy
70°F / 21°C 66°F / 19°C 88% 29.8 in
(1009 mb)
SW 12.7 mph
(SW 20 kph)
- 10SM
02:53
Partly Cloudy
70°F / 21°C 66°F / 19°C 88% 29.8 in
(1009 mb)
SW 11.5 mph
(SW 19 kph)
- 10SM
02:33
Clear
70°F / 21°C 66°F / 19°C 88% 29.8 in
(1009 mb)
SW 9.2 mph
(SW 15 kph)
- 10SM
02:13
Clear
70°F / 21°C 66°F / 19°C 88% 29.8 in
(1009 mb)
SW 8.1 mph
(SW 13 kph)
- 10SM
01:53
Clear
70°F / 21°C 66°F / 19°C 88% 29.8 in
(1009 mb)
SW 6.9 mph
(SW 11 kph)
- 10SM
01:33
Clear
70°F / 21°C 66°F / 19°C 88% 29.8 in
(1009 mb)
SW 5.8 mph
(SW 9 kph)
- 10SM
01:13
Clear
70°F / 21°C 66°F / 19°C 88% 29.83 in
(1010 mb)
SW 6.9 mph
(SW 11 kph)
- 10SM
00:53
Clear
70°F / 21°C 66°F / 19°C 88% 29.83 in
(1010 mb)
SW 6.9 mph
(SW 11 kph)
- 10SM
00:33
Clear
70°F / 21°C 66°F / 19°C 88% 29.83 in
(1010 mb)
SW 9.2 mph
(SW 15 kph)
- 10SM
00:13
Clear
70°F / 21°C 66°F / 19°C 88% 29.83 in
(1010 mb)
SW 8.1 mph
(SW 13 kph)
- 10SM
Time Weather Temperature Dewpoint Humidity Pressure Winds Precip Visibility


Weather for websites

WeatherForYou.com, LLC is not responsible for any damages or problems caused by this service. Current weather conditions are obtained from the closest station including government and personal stations which may have varying degrees of accuracy. Weather forecasts are derived from the NOAA NDFD. Like all things, this site belongs to Jesus Christ... He just trusts us to maintain it. If you have any questions or comments email webmaster@weatherforyou.com

Copyright © 2015, WeatherForYou.com LLC. All rights reserved.